Regional Weather Roundup
Issued by NWS

Home | Current Version | Previous Version | Graphics & Text | Print | Product List | Glossary On
Versions: 1 2 3 4 5 6 7 8 9 10 11 12 13 14 15 16 17 18 19 20 21 22 23 24 25 26 27 28 29 30 31 32 33 34 35 36 37 38 39 40 41 42 43 44 45 46 47 48 49 50
000
ASUS45 KTFX 110504
RWRMT
MONTANA HOURLY WEATHER ROUNDUP
NATIONAL WEATHER SERVICE GREAT FALLS MT
1104 PM MDT THU JUL 10 2014

NOTE: "FAIR" INDICATES FEW OR NO CLOUDS BELOW 12000 FEET WITH NO
SIGNIFICANT WEATHER AND/OR OBSTRUCTIONS TO VISIBILITY.

* THESE STATIONS ARE NOT UNDER NWS QUALITY CONTROL. THEY DO NOT
   REPORT WEATHER SUCH AS PRECIPITATION OR FOG.

MTZ001>007-043-110600-
WEST OF THE DIVIDE
CITY           SKY/WX    TMP DP  RH WIND       PRES   REMARKS
KALISPELL      CLEAR     63  46  54 S3        29.90R
MISSOULA       CLEAR     66  36  33 N8        29.92R
BUTTE          CLEAR     63  43  48 SE7       30.06R
MULLAN PASS    CLEAR     61  36  39 NW3       30.12R
* ESSEX        N/A      N/A N/A N/A N/A        N/A
* LINCOLN      N/A       65  43  45 NE2        N/A
* LOOKOUT PASS N/A       63  45  52 NE1        N/A
* POLSON       N/A       67  38  35 NW3        N/A
* RONAN APT    CLEAR     64  52  65 N/A        N/A
* SEELEY LAKE  N/A       63  45  52 N/A        N/A
* THOMP F APT  CLEAR     66  49  54 NE3G9      N/A
* YAAK HILL    N/A       72  46  40 NE1        N/A
$$

MTZ008-052>055-110600-
SOUTHWEST MONTANA
CITY           SKY/WX    TMP DP  RH WIND       PRES   REMARKS
BOZEMAN        CLEAR     72  48  43 S9        29.95R
DILLON         PTCLDY    68  37  32 SE9       30.00R
W YELLOWSTONE  PTCLDY    64  46  52 SW5       30.15R
* THREE FORKS  CLEAR     64  64 100 N/A        N/A
* BOULDER HILL N/A       67  33  28 N/A        N/A
* MONIDA PASS  N/A       64  47  54 SE9        N/A
* RAYNOLDS PAS N/A       60  38  44 SE8        N/A
* WHITEHALL    N/A       72  31  22 SE3G9      N/A
* WISE RIVER   N/A       66  40  39 S6         N/A
$$

MTZ009>010-012-014-046-048-049-054-110600-
EAST SLOPES AND CENTRAL MONTANA
CITY           SKY/WX    TMP DP  RH WIND       PRES   REMARKS
CUT BANK       CLEAR     64  55  73 N14       29.96R
GREAT FALLS    CLEAR     73  45  37 N9G17     29.90R
HELENA         CLEAR     75  36  24 W9        29.93R
* CONRAD       CLEAR     70  55  59 N/A        N/A
* DEARBORN     N/A       78  44  30 NE2        N/A
* EAST GLACIER N/A       63  37  38 NW4        N/A
* MONARCH      N/A       63  34  34 S4         N/A
* PENDROY      N/A       66  48  52 NE3        N/A
* ROGERS PASS  N/A       63  32  31 W2         N/A
* SAINT MARY   N/A       65  49  56 NE6G12     N/A
* SWEET GRASS  N/A       62  62 100 NE9        N/A
$$

MTZ011-013-016-021-035-040-045-047-050-051-110600-
NORTH CENTRAL MONTANA
CITY           SKY/WX    TMP DP  RH WIND       PRES   REMARKS
HAVRE          PTCLDY    73  59  62 E15       29.89R
LEWISTOWN      CLEAR     68  46  45 E5        29.94R
* CHESTER      N/A       70  52  53 NE6G11     N/A
* DENTON       N/A       70  45  41 SE3        N/A
* JUDITH GAP   N/A       74  51  45 N/A        N/A
* LOMA         N/A       75  54  48 N16        N/A
$$

MTZ017>020-022>027-061-062-110600-
NORTHEAST MONTANA
CITY           SKY/WX    TMP DP  RH WIND       PRES   REMARKS
GLASGOW        CLEAR     66  57  73 E10       29.88R
GLENDIVE       CLEAR     72  61  68 N13       29.90R
JORDAN         CLEAR     73  57  57 E6        29.88R
SIDNEY         CLEAR     68  59  73 NW7       29.90R
WOLF POINT     CLEAR     66  57  73 N9        29.90R
* BEAVER HILL  N/A       71  63  76 N15G20     N/A
* CIRCLE       N/A       71  60  68 NE4G9      N/A
* LINDSAY DVD  N/A       67  61  81 N9         N/A
* NAVAJO       N/A       63  57  81 N9         N/A
$$

MTZ028>042-056>058-110600-
SOUTHCENTRAL AND SOUTHEAST MONTANA
CITY           SKY/WX    TMP DP  RH WIND       PRES   REMARKS
BAKER          CLEAR     70  61  73 N6        29.91R
BILLINGS       PTCLDY    79  52  39 SW8       29.90R
LIVINGSTON     CLEAR     61  43  52 W6        29.95R
MILES CITY     CLEAR     75  55  50 NE10      29.87R
* LAUREL APT   PTCLDY    75  52  45 SW5        N/A
* ROUNDUP APT  CLEAR     75  39  27 N/A        N/A
* ALZADA       N/A       74  57  55 N/A        N/A
* HYSHAM       N/A       76  46  35 E11        N/A
* LAME DEER    N/A       73  47  40 NE9        N/A
* REED POINT   N/A       70  50  49 N/A        N/A
* ROSCOE HILL  N/A       72  44  37 S10G15     N/A
$$

REGIONAL REPORTS...DAKOTAS
CITY           SKY/WX    TMP DP  RH WIND       PRES   REMARKS
WILLISTON      CLEAR     70  61  73 N12       29.87R
DICKINSON      CLEAR     70  66  87 SW8       29.85R
CROSBY         N/A       63  63 100 NW10      29.88R
WATFORD CITY   CLEAR     70  64  81 N6        29.84R
BISMARCK       CLEAR     66  64  93 SE5       29.83S
GRAND FORKS    MOCLDY    70  64  81 S6        29.81S
FARGO          MOCLDY    72  66  81 SE10      29.82F
BUFFALO SD     MOCLDY    72  64  76 S7        29.83R
RAPID CITY     PTCLDY    72  61  68 W6        29.91S
$$

REGIONAL REPORTS...WYOMING/IDAHO/WASHINGTON
CITY           SKY/WX    TMP DP  RH WIND       PRES   REMARKS
GILLETTE       CLOUDY    70  55  59 S9        29.99R
SHERIDAN       CLEAR     63  54  73 CALM      29.96R
CODY           MOCLDY    66  57  73 N3        30.06R
YELLOWSTONE LA PTCLDY    52  46  80 CALM      30.27R
SALMON         CLEAR     70  46  42 SW5       29.91R
MULLAN PASS    CLEAR     61  36  39 NW3       30.12S
SAND POINT     CLEAR     64  54  70 CALM      29.87R
SPOKANE        MOCLDY    81  36  20 E7        29.86R
$$

REGIONAL REPORTS...ALBERTA
CITY           SKY/WX    TMP DP  RH WIND       PRES   REMARKS
LETHBRIDGE     LGT RAIN  63  54  73 NE8       30.01R
MEDICINE HAT   MOCLDY    70  50  49 N20G26    29.97R

$$




USA.gov is the U.S. government's official web portal to all federal, state and local government web resources and services.